Погода в Красилове

Россия / Новгородская область     57°41′18″N   33°19′52″E
темп.,
°C
ветер,
м/с
пор.,
м/с
влажн.,
%
обл.,
%
осадки,
мм/ч
давл.,
гПа
погр.,
м
28 сентября, вт
вт2800:00+6ссв28967 0.0 1030212
03:00+6св279499 0.0 1030240
06:00+5св279827 0.0 1031213
09:00+7всв3887100 0.0 1032432
12:00+9в357197 0.1 10321032
15:00+10вюв346095 0.1 10331232
18:00+8вюв116831 0.0 103421
21:00+5всв118450 0.0 103510
29 сентября, ср
ср2900:00+3в11918 0.0 103610
03:00+3вюв11925 0.0 103710
06:00+2ю019393 0.0 103710
09:00+6вюв117971 0.0 1037112
12:00+10вюв016096 0.0 1037621
15:00+12св005580 0.0 1036908
18:00+8ссз007356 0.0 103510
21:00+5в118747 0.0 103610
30 сентября, чт
чт3000:00+4ююв119112 0.0 103610
03:00+4ююз11925 0.0 103610
06:00+3ююз11925 0.0 103610
09:00+7ю11775 0.0 1036112
12:00+12ююв125853 0.0 1035621
15:00+13ю225254 0.0 1034937
18:00+9ююв117211 0.0 103410
21:00+6ю228112 0.0 103413
1 октября, пт
пт100:00+5ююз22865 0.0 103534
03:00+4ююз228654 0.0 103541
06:00+4ююз228948 0.0 103536
09:00+7ююз257565 0.0 1034175
12:00+11ююз345472 0.0 1034662
15:00+13юз344843 0.0 1033962
18:00+9ююз226954 0.0 103212
21:00+6ююз237960 0.0 103337
2 октября, сб
сб200:00+5ююз23855 0.0 103352
03:00+4ююз239041 0.0 103358
06:00+4ю249417 0.0 103279
09:00+7ю36816 0.0 1032194
12:00+12ююз35597 0.0 1031710
15:00+13ююз3554100 0.0 10301081
18:00+10ю2474100 0.0 103094
21:00+8ю2880100 0.0 1030196